Regional Weather Roundup
Issued by NWS Newport/Morehead, NC

Current Version | Previous Version | Text Only | Print | Product List | Glossary On
Versions: 1 2 3 4 5 6 7 8 9 10 11 12 13 14 15 16 17 18 19 20 21 22 23 24 25 26 27 28 29 30 31 32 33 34 35 36 37 38 39 40 41 42 43 44 45 46 47 48 49 50
000
ASUS42 KMHX 241825
RWRMHX
WEATHER ROUNDUP FOR EASTERN NORTH CAROLINA
NATIONAL WEATHER SERVICE NEWPORT/MOREHEAD CITY NC
200 PM EDT THU MAY 24 2018

NOTE: "FAIR" INDICATES FEW OR NO CLOUDS BELOW 12,000 FEET
WITH NO SIGNIFICANT WEATHER AND/OR OBSTRUCTIONS TO VISIBILITY

NCZ015>017-031-032-045>047-102-103-241900-
NORTH COAST

CITY           SKY/WX    TMP DP  RH WIND       PRES   REMARKS
EDENTON        FAIR      81  64  56 SE8       30.17S
ELIZABETH CITY FAIR      82  60  47 NE6       30.17S
KITTY HAWK     FAIR      75  64  68 NE7       30.16S
MANTEO         FAIR      77  60  55 E12       30.17F

$$

NCZ045>047-081-094-103-104-241900-
CENTRAL COAST

CITY           SKY/WX    TMP DP  RH WIND       PRES   REMARKS
FRISCO         FAIR      81  64  56 NE8       30.16S

$$

NCZ095-097-098-100-101-241900-
SOUTHERN COAST

CITY           SKY/WX    TMP DP  RH WIND       PRES   REMARKS
BEAUFORT       FAIR      79  66  64 E13       30.14F
CEDAR ISLAND   NOT AVBL
JACKSONVILLE   PTSUNNY   80  71  74 SE13      30.13F
PINEY ISLAND   NOT AVBL
WILMINGTON     FAIR      78  69  73 E15       30.14F


$$

NCZ011>013-027>030-043-044-078>080-089-090>093-098-241900-
COASTAL PLAIN

CITY           SKY/WX    TMP DP  RH WIND       PRES   REMARKS
AHOSKIE        FAIR      81  58  46 N5        30.16F
CLINTON        FAIR      84  71  65 NE6       30.13F
ELIZABETHTOWN  FAIR      80  72  75 E5        30.12F
GOLDSBORO      FAIR      83  66  55 N8        30.13F
GREENVILLE     FAIR      82  59  44 NE5       30.16S
HAVELOCK       MOSUNNY   83  68  60 E10       30.15F
KENANSVILLE    PTSUNNY   84  68  58 E6        30.13F
KINSTON        MOSUNNY   82  64  54 NE3       30.15F
NEW BERN       FAIR      82  66  58 NE9       30.15F
RICHLANDS        N/A     84  67  56 MISG        N/A
ROCKY MOUNT    FAIR      83  63  50 VRB6      30.16F
WASHINGTON     FAIR      82  59  45 CALM      30.15F
WHITEVILLE     CLOUDY    80  71  73 E6        30.11F

$$

AMZ130-135-150-152-154-156-158-170-250-252-270-ANZ085-086-088-633-658-670-241900-
MARINE OBSERVATIONS

STATION/POSITION TIME  TEMP    WIND        PRES    WAVE   SWELL
                       AIR SEA DIR/SP/G            HT/PER HT/PER
                 (UTC) (F)     (DEG/KT/KT) (MB)    (FT/S) (FT/S)
CHESAPEAKE LIGHT NOT AVBL
64 E VA BEACH    1750   68 69   30/ 10/ 10 1021.9    2/ 8   2/ 8
DUCK             1800   72 67   30/  6/  7 1021.4
2 E DUCK         1800      72                N/A     2/ 8
OREGON INLET     1800   72 74   20/  8/ 11 1021.4
13E OREGON INLT  1748      70                N/A     2/ 8   2/ 8
HATTERAS CG      1800   75 75   60/ 10/ 12 1020.9
DIAMOND BUOY     1810   72 75   20/ 10/ 14 1021.3
CAPE LOOKOUT     1800           60/  9/ 10 1021.2
BEAUFORT LAB     1800   78 78  110/ 10/ 17 1021.0
30 SE NEW RVR IN 1808   75     100/ 10/ 12 1020.7
30 SE NEW RVR IN 1800      76                N/A     2/ 8
27 SE WRIGHTSVLE 1808   74 76   80/ 10/ 12 1020.7
5 SE WRIGHTSVLE  1808   74 74  140/ 12/ 14 1019.8
225 S CAPE HAT   1800      79  290/  6/  6 1020.3
41 SE CHARLESTON 1800      75  170/  2/  4 1019.7

$$




USA.gov is the U.S. government's official web portal to all federal, state and local government web resources and services.